Overview Statistics Trail Chart Weather Telemetry Raw packets
 

This is the latest recevied weather packets stored in our database for station/object DG6YGE-6. If no packets are shown the sender has not sent any weather packets the latest 10 day(s).

<< 44 45 46 47 48 49 50 >>
Time Temp. Humidity Pressure Rain* Wind** Luminosity Snow
1787980750 15.56° C 87% 1009.4 hPa 0 mm - 58 W/m² -
1787980150 15° C 87% 1009.3 hPa 0 mm - 24 W/m² -
1787979551 15° C 87% 1009.3 hPa 0 mm - 13 W/m² -
1787978950 15° C 87% 1009.2 hPa 0 mm - 8 W/m² -
1787978350 15.56° C 87% 1009.3 hPa 0 mm - 1 W/m² -
1787977750 15.56° C 87% 1009.4 hPa 0 mm - 0 W/m² -
1787977150 15.56° C 87% 1009.2 hPa 0 mm - 0 W/m² -
1787976550 15.56° C 87% 1009.3 hPa 0 mm - 0 W/m² -
1787975950 15.56° C 87% 1009.2 hPa 0 mm - 0 W/m² -
1787975350 15.56° C 87% 1009.1 hPa 0 mm - 0 W/m² -
1787974750 15.56° C 87% 1009.1 hPa 0 mm - 0 W/m² -
1787974150 15.56° C 87% 1009.1 hPa 0 mm - 0 W/m² -
1787973550 15.56° C 87% 1009.1 hPa 0 mm - 0 W/m² -
1787972950 15.56° C 87% 1009.1 hPa 0 mm - 0 W/m² -
1787972350 15.56° C 87% 1009.1 hPa 0 mm - 0 W/m² -
1787971750 15.56° C 87% 1009.2 hPa 0 mm - 0 W/m² -
1787971150 15.56° C 87% 1009.2 hPa 0 mm - 0 W/m² -
1787970550 15.56° C 87% 1009.3 hPa 0 mm - 0 W/m² -
1787969950 15.56° C 87% 1009.3 hPa 0 mm - 0 W/m² -
1787969351 15.56° C 87% 1009.3 hPa 0 mm - 0 W/m² -
1787968750 16.11° C 87% 1009.4 hPa 0 mm - 0 W/m² -
1787968151 16.11° C 87% 1009.3 hPa 0 mm - 0 W/m² -
1787967550 16.11° C 87% 1009.2 hPa 0 mm - 0 W/m² -
1787966950 16.11° C 86% 1009 hPa 0 mm - 0 W/m² -
1787966350 16.11° C 86% 1009.1 hPa 0 mm - 0 W/m² -

* Rain latest hour (hover to see other rain measurements)
** Current wind speed in m/s (hover to see current wind gust speed)